Flag for U.S.A. Weather past 2 weeks in Compton, California, U.S.A.

Now
71 °F

Overcast.


Feels Like: 76 °F
Forecast: 65 / 76 °F
Wind: 7 mph from East

Location: Hawthorne Municipal Airport

Current Time: Sep 4, 2015 at 9:51:57 AM

Latest Report: Sep 4, 2015 at 8:53 AM


Visibility: 10 mi

Pressure: 29.89 "Hg

Humidity: 59%

Dew point: 56 °F

Location of ComptonLocation

Historic Weather in Compton — Graph

°F

Compton temperature yesterday

Maximum temperature yesterday: 77 °F (at 1:53 PM)
Minimum temperature yesterday: 68 °F (at 1:53 AM)
Average temperature yesterday: 71 °F

Past Weeks' High & Low Weather Summary

 TemperatureHumidityPressure
High91 °F (Aug 28, 12:53 PM)88% (Aug 26, 3:53 AM)29.99 "Hg (Aug 26, 3:53 AM)
Low68 °F (Aug 23, 2:53 AM)33% (Aug 28, 12:53 PM)29.81 "Hg (Aug 28, 6:53 PM)
Average75 °F68%29.90 "Hg
* Reported Aug 20 7:53 AM — Sep 4 7:53 AM, Compton, Weather by CustomWeather, © 2015

Note: Actual official high and low records may vary slightly from our data, if they occured in-between our weather recording intervals... More about our weather records

Advertising

Compton weather history for previous 24 hours

 ConditionsComfort  
Time TempWeatherWind HumidityBarometerVisibility
7:53 AM
Fri, Sep 4
71 °FOvercast.7 mph55%29.88 "Hg10 mi
6:53 AM70 °FOvercast.7 mph61%29.87 "Hg10 mi
5:53 AM70 °FOvercast.6 mph61%29.85 "Hg10 mi
4:53 AM70 °FOvercast.6 mph68%29.85 "Hg10 mi
3:53 AM69 °FOvercast.3 mph70%29.85 "Hg10 mi
2:53 AM69 °FOvercast.3 mph66%29.85 "Hg10 mi
1:53 AM70 °FMostly cloudy.No wind64%29.85 "Hg10 mi
12:53 AM70 °FPassing clouds.No wind64%29.86 "Hg10 mi
11:53 PM
Thu, Sep 3
69 °FPassing clouds.No wind66%29.86 "Hg10 mi
10:53 PM69 °FClear.No wind66%29.86 "Hg10 mi
9:53 PM70 °FClear.3 mph66%29.86 "Hg10 mi
8:53 PM70 °FClear.5 mph61%29.84 "Hg10 mi
7:53 PM71 °FSunny.6 mph57%29.83 "Hg10 mi
6:53 PM71 °FSunny.8 mph61%29.82 "Hg10 mi
5:53 PM73 °FSunny.10 mph62%29.82 "Hg10 mi
4:53 PM74 °FSunny.12 mph57%29.83 "Hg10 mi
3:53 PM76 °FSunny.16 mph52%29.83 "Hg10 mi
2:53 PM77 °FSunny.12 mph48%29.85 "Hg10 mi
1:53 PM77 °FSunny.12 mph48%29.87 "Hg10 mi
12:53 PM76 °FSunny.No wind48%29.89 "Hg10 mi
11:53 AM74 °FPassing clouds.5 mph52%29.91 "Hg10 mi
10:53 AM73 °FOvercast.No wind55%29.93 "Hg10 mi
9:53 AM71 °FOvercast.9 mph59%29.94 "Hg10 mi
Weather by CustomWeather, © 2015

See weather overviewHow to use our weather pages